contact:dominique.lefevre@mio.osupytheas.fr, maurice.libes@osupytheas.fr, didier.mallarino@osupytheas.fr
Project:EMSO http://www.emso-fr.org/EMSO-France
Depth: 2436.0 m
Title:EMSO Ligure Ouest : Data MII capteur CSTAR
DateTime,Latitude,Longitude,Instrument_Serial,Reference_Counts,Signal_Counts,Corrected_Signal_raw_counts,Calculated_Beam_c_inverse_meters,Internal_thermistor_counts
DateTime,Latitude,Longitude,Instrument_Serial,Reference_Counts,Signal_Counts,Corrected_Signal_raw_counts,Calculated_Beam_c_inverse_meters,Internal_thermistor_counts
2020-08-02T00:02:09,42.805,6.029,CST-1368DR,6012,8420,15113,0.131,551
2020-08-02T00:05:10,42.805,6.029,CST-1368DR,6012,8421,15114,0.131,551
2020-08-02T00:08:12,42.805,6.029,CST-1368DR,6012,8420,15112,0.131,551
2020-08-02T00:11:14,42.805,6.029,CST-1368DR,6012,8419,15111,0.131,551
2020-08-02T00:14:15,42.805,6.029,CST-1368DR,6012,8421,15113,0.131,550
2020-08-02T00:17:17,42.805,6.029,CST-1368DR,6012,8421,15114,0.131,551
2020-08-02T00:20:19,42.805,6.029,CST-1368DR,6012,8420,15112,0.131,551
2020-08-02T00:23:21,42.805,6.029,CST-1368DR,6012,8420,15113,0.131,551
2020-08-02T00:26:22,42.805,6.029,CST-1368DR,6012,8419,15111,0.131,551
2020-08-02T00:29:24,42.805,6.029,CST-1368DR,6012,8420,15112,0.131,551
2020-08-02T00:32:26,42.805,6.029,CST-1368DR,6012,8421,15114,0.131,551
2020-08-02T00:35:27,42.805,6.029,CST-1368DR,6012,8420,15112,0.131,551
2020-08-02T00:38:29,42.805,6.029,CST-1368DR,6012,8417,15107,0.133,551
2020-08-02T00:41:31,42.805,6.029,CST-1368DR,6011,8419,15113,0.131,551
2020-08-02T00:44:32,42.805,6.029,CST-1368DR,6012,8421,15114,0.131,551
2020-08-02T00:47:34,42.805,6.029,CST-1368DR,6012,8420,15112,0.131,551
2020-08-02T00:50:36,42.805,6.029,CST-1368DR,6011,8420,15114,0.131,550
2020-08-02T00:53:37,42.805,6.029,CST-1368DR,6011,8420,15114,0.131,551
2020-08-02T00:56:39,42.805,6.029,CST-1368DR,6011,8420,15115,0.130,551
2020-08-02T00:59:41,42.805,6.029,CST-1368DR,6011,8420,15114,0.131,551
2020-08-02T01:02:42,42.805,6.029,CST-1368DR,6011,8420,15115,0.130,551
2020-08-02T01:05:44,42.805,6.029,CST-1368DR,6011,8420,15114,0.131,551
2020-08-02T01:08:46,42.805,6.029,CST-1368DR,6011,8419,15113,0.131,551
2020-08-02T01:11:47,42.805,6.029,CST-1368DR,6011,8418,15111,0.131,551
2020-08-02T01:14:49,42.805,6.029,CST-1368DR,6011,8418,15110,0.132,551
2020-08-02T01:17:51,42.805,6.029,CST-1368DR,6011,8418,15111,0.131,551
2020-08-02T01:20:52,42.805,6.029,CST-1368DR,6011,8419,15113,0.131,551
2020-08-02T01:23:54,42.805,6.029,CST-1368DR,6011,8417,15109,0.132,551
2020-08-02T01:26:56,42.805,6.029,CST-1368DR,6011,8417,15110,0.132,551
2020-08-02T01:29:58,42.805,6.029,CST-1368DR,6011,8419,15113,0.131,551
2020-08-02T01:32:59,42.805,6.029,CST-1368DR,6011,8421,15116,0.130,551
2020-08-02T01:36:01,42.805,6.029,CST-1368DR,6011,8420,15114,0.131,551
2020-08-02T01:39:03,42.805,6.029,CST-1368DR,6011,8420,15115,0.130,551
2020-08-02T01:42:04,42.805,6.029,CST-1368DR,6011,8420,15114,0.131,551
2020-08-02T01:45:06,42.805,6.029,CST-1368DR,6011,8420,15115,0.130,551
2020-08-02T01:48:08,42.805,6.029,CST-1368DR,6011,8420,15115,0.130,551
2020-08-02T01:51:09,42.805,6.029,CST-1368DR,6011,8419,15113,0.131,551
2020-08-02T01:54:11,42.805,6.029,CST-1368DR,6011,8419,15113,0.131,550
2020-08-02T01:57:13,42.805,6.029,CST-1368DR,6011,8420,15115,0.130,551
2020-08-02T02:00:14,42.805,6.029,CST-1368DR,6011,8420,15114,0.131,551
2020-08-02T02:03:16,42.805,6.029,CST-1368DR,6011,8419,15113,0.131,551
2020-08-02T02:06:18,42.805,6.029,CST-1368DR,6011,8419,15112,0.131,550
2020-08-02T02:09:20,42.805,6.029,CST-1368DR,6011,8419,15113,0.131,551
2020-08-02T02:12:21,42.805,6.029,CST-1368DR,6011,8420,15114,0.131,551
2020-08-02T02:15:23,42.805,6.029,CST-1368DR,6011,8420,15114,0.131,551
2020-08-02T02:18:25,42.805,6.029,CST-1368DR,6011,8419,15113,0.131,551
2020-08-02T02:21:26,42.805,6.029,CST-1368DR,6011,8419,15113,0.131,551
2020-08-02T02:24:28,42.805,6.029,CST-1368DR,6011,8419,15113,0.131,551
2020-08-02T02:27:30,42.805,6.029,CST-1368DR,6011,8418,15112,0.131,551
2020-08-02T02:30:32,42.805,6.029,CST-1368DR,6011,8418,15111,0.131,551
2020-08-02T02:33:33,42.805,6.029,CST-1368DR,6011,8420,15114,0.131,551
2020-08-02T02:36:35,42.805,6.029,CST-1368DR,6011,8419,15112,0.131,551
2020-08-02T02:39:37,42.805,6.029,CST-1368DR,6011,8421,15116,0.130,550
2020-08-02T02:42:39,42.805,6.029,CST-1368DR,6011,8418,15111,0.131,551
2020-08-02T02:45:40,42.805,6.029,CST-1368DR,6011,8419,15113,0.131,551
2020-08-02T02:48:42,42.805,6.029,CST-1368DR,6011,8419,15112,0.131,550
2020-08-02T02:51:44,42.805,6.029,CST-1368DR,6011,8420,15114,0.131,551
2020-08-02T02:54:45,42.805,6.029,CST-1368DR,6011,8419,15112,0.131,551
2020-08-02T02:57:47,42.805,6.029,CST-1368DR,6011,8419,15113,0.131,551
2020-08-02T03:00:49,42.805,6.029,CST-1368DR,6011,8419,15113,0.131,551
2020-08-02T03:03:50,42.805,6.029,CST-1368DR,6011,8419,15113,0.131,551
2020-08-02T03:06:52,42.805,6.029,CST-1368DR,6011,8419,15113,0.131,551
2020-08-02T03:09:54,42.805,6.029,CST-1368DR,6011,8419,15112,0.131,551
2020-08-02T03:12:55,42.805,6.029,CST-1368DR,6011,8419,15113,0.131,551
2020-08-02T03:15:57,42.805,6.029,CST-1368DR,6011,8420,15114,0.131,551
2020-08-02T03:18:59,42.805,6.029,CST-1368DR,6011,8419,15113,0.131,551
2020-08-02T03:22:00,42.805,6.029,CST-1368DR,6011,8418,15112,0.131,551
2020-08-02T03:25:02,42.805,6.029,CST-1368DR,6011,8419,15113,0.131,551
2020-08-02T03:28:04,42.805,6.029,CST-1368DR,6011,8419,15112,0.131,551
2020-08-02T03:31:06,42.805,6.029,CST-1368DR,6011,8420,15114,0.131,551
2020-08-02T03:34:07,42.805,6.029,CST-1368DR,6011,8419,15113,0.131,551
2020-08-02T03:37:09,42.805,6.029,CST-1368DR,6011,8419,15113,0.131,551
2020-08-02T03:40:11,42.805,6.029,CST-1368DR,6011,8419,15112,0.131,551
2020-08-02T03:43:12,42.805,6.029,CST-1368DR,6011,8418,15111,0.131,551
2020-08-02T03:46:14,42.805,6.029,CST-1368DR,6011,8419,15112,0.131,551
2020-08-02T03:49:16,42.805,6.029,CST-1368DR,6011,8419,15113,0.131,551
2020-08-02T03:52:17,42.805,6.029,CST-1368DR,6011,8419,15112,0.131,551
2020-08-02T03:55:19,42.805,6.029,CST-1368DR,6011,8420,15114,0.131,551
2020-08-02T03:58:21,42.805,6.029,CST-1368DR,6011,8418,15112,0.131,551
2020-08-02T04:01:22,42.805,6.029,CST-1368DR,6011,8418,15112,0.131,551
2020-08-02T04:04:24,42.805,6.029,CST-1368DR,6011,8419,15113,0.131,551
2020-08-02T04:07:26,42.805,6.029,CST-1368DR,6011,8418,15111,0.131,551
2020-08-02T04:10:27,42.805,6.029,CST-1368DR,6011,8419,15113,0.131,551
2020-08-02T04:13:29,42.805,6.029,CST-1368DR,6011,8419,15112,0.131,551
2020-08-02T04:16:31,42.805,6.029,CST-1368DR,6011,8419,15112,0.131,551
2020-08-02T04:19:33,42.805,6.029,CST-1368DR,6011,8418,15111,0.131,551
2020-08-02T04:22:34,42.805,6.029,CST-1368DR,6011,8419,15113,0.131,551
2020-08-02T04:25:36,42.805,6.029,CST-1368DR,6011,8419,15113,0.131,551
2020-08-02T04:28:38,42.805,6.029,CST-1368DR,6011,8419,15113,0.131,551
2020-08-02T04:31:40,42.805,6.029,CST-1368DR,6011,8417,15109,0.132,551
2020-08-02T04:34:41,42.805,6.029,CST-1368DR,6011,8419,15113,0.131,551
2020-08-02T04:37:43,42.805,6.029,CST-1368DR,6011,8419,15113,0.131,551
2020-08-02T04:40:45,42.805,6.029,CST-1368DR,6011,8418,15112,0.131,551
2020-08-02T04:43:46,42.805,6.029,CST-1368DR,6011,8419,15113,0.131,550
2020-08-02T04:46:48,42.805,6.029,CST-1368DR,6011,8418,15112,0.131,551
2020-08-02T04:49:50,42.805,6.029,CST-1368DR,6011,8418,15110,0.132,551
2020-08-02T04:52:52,42.805,6.029,CST-1368DR,6011,8417,15109,0.132,551
2020-08-02T04:55:53,42.805,6.029,CST-1368DR,6011,8419,15113,0.131,551
2020-08-02T04:58:55,42.805,6.029,CST-1368DR,6011,8418,15112,0.131,551
2020-08-02T05:01:57,42.805,6.029,CST-1368DR,6011,8419,15113,0.131,551
2020-08-02T05:04:58,42.805,6.029,CST-1368DR,6011,8419,15113,0.131,551
2020-08-02T05:08:00,42.805,6.029,CST-1368DR,6011,8418,15112,0.131,551
2020-08-02T05:11:02,42.805,6.029,CST-1368DR,6011,8417,15110,0.132,551
2020-08-02T05:14:03,42.805,6.029,CST-1368DR,6011,8418,15112,0.131,551
2020-08-02T05:17:05,42.805,6.029,CST-1368DR,6011,8418,15111,0.131,551
2020-08-02T05:20:07,42.805,6.029,CST-1368DR,6011,8418,15111,0.131,551
2020-08-02T05:23:08,42.805,6.029,CST-1368DR,6011,8419,15112,0.131,551
2020-08-02T05:26:10,42.805,6.029,CST-1368DR,6011,8418,15111,0.131,551
2020-08-02T05:29:12,42.805,6.029,CST-1368DR,6011,8419,15113,0.131,551
2020-08-02T05:32:14,42.805,6.029,CST-1368DR,6011,8419,15113,0.131,551
2020-08-02T05:35:15,42.805,6.029,CST-1368DR,6011,8418,15111,0.131,551
2020-08-02T05:38:17,42.805,6.029,CST-1368DR,6011,8419,15112,0.131,551
2020-08-02T05:41:19,42.805,6.029,CST-1368DR,6011,8417,15110,0.132,550
2020-08-02T05:44:20,42.805,6.029,CST-1368DR,6011,8419,15113,0.131,551
2020-08-02T05:47:22,42.805,6.029,CST-1368DR,6011,8419,15112,0.131,551
2020-08-02T05:50:24,42.805,6.029,CST-1368DR,6011,8418,15112,0.131,551
2020-08-02T05:53:25,42.805,6.029,CST-1368DR,6011,8419,15112,0.131,550
2020-08-02T05:56:27,42.805,6.029,CST-1368DR,6011,8418,15112,0.131,551
2020-08-02T05:59:29,42.805,6.029,CST-1368DR,6011,8418,15111,0.131,551
2020-08-02T06:02:30,42.805,6.029,CST-1368DR,6011,8417,15110,0.132,551
2020-08-02T06:05:32,42.805,6.029,CST-1368DR,6011,8417,15110,0.132,551
2020-08-02T06:08:34,42.805,6.029,CST-1368DR,6011,8416,15107,0.133,551
2020-08-02T06:11:35,42.805,6.029,CST-1368DR,6011,8418,15111,0.131,551
2020-08-02T06:14:37,42.805,6.029,CST-1368DR,6011,8417,15110,0.132,551
2020-08-02T06:17:39,42.805,6.029,CST-1368DR,6011,8418,15112,0.131,551
2020-08-02T06:20:40,42.805,6.029,CST-1368DR,6011,8417,15110,0.132,551
2020-08-02T06:23:42,42.805,6.029,CST-1368DR,6011,8418,15111,0.131,551
2020-08-02T06:26:44,42.805,6.029,CST-1368DR,6011,8419,15113,0.131,551
2020-08-02T06:29:46,42.805,6.029,CST-1368DR,6011,8419,15113,0.131,551
2020-08-02T06:32:47,42.805,6.029,CST-1368DR,6011,8418,15110,0.132,551
2020-08-02T06:35:49,42.805,6.029,CST-1368DR,6011,8418,15112,0.131,550
2020-08-02T06:38:51,42.805,6.029,CST-1368DR,6011,8418,15112,0.131,550
2020-08-02T06:41:52,42.805,6.029,CST-1368DR,6011,8419,15112,0.131,551
2020-08-02T06:44:54,42.805,6.029,CST-1368DR,6011,8418,15112,0.131,551
2020-08-02T06:47:56,42.805,6.029,CST-1368DR,6011,8419,15112,0.131,551
2020-08-02T06:50:57,42.805,6.029,CST-1368DR,6010,8418,15113,0.131,551
2020-08-02T06:53:59,42.805,6.029,CST-1368DR,6011,8418,15111,0.131,551
2020-08-02T06:57:01,42.805,6.029,CST-1368DR,6010,8418,15114,0.131,551
2020-08-02T07:00:02,42.805,6.029,CST-1368DR,6011,8417,15109,0.132,551
2020-08-02T07:03:04,42.805,6.029,CST-1368DR,6010,8417,15112,0.131,551
2020-08-02T07:06:06,42.805,6.029,CST-1368DR,6010,8419,15114,0.131,551
2020-08-02T07:09:08,42.805,6.029,CST-1368DR,6010,8417,15112,0.131,551
2020-08-02T07:12:09,42.805,6.029,CST-1368DR,6011,8418,15111,0.131,551
2020-08-02T07:15:11,42.805,6.029,CST-1368DR,6011,8418,15112,0.131,551
2020-08-02T07:18:13,42.805,6.029,CST-1368DR,6010,8418,15114,0.131,551
2020-08-02T07:21:15,42.805,6.029,CST-1368DR,6011,8417,15110,0.132,551
2020-08-02T07:24:16,42.805,6.029,CST-1368DR,6010,8419,15114,0.131,551
2020-08-02T07:27:18,42.805,6.029,CST-1368DR,6010,8416,15109,0.132,551
2020-08-02T07:30:20,42.805,6.029,CST-1368DR,6010,8416,15110,0.132,551
2020-08-02T07:33:21,42.805,6.029,CST-1368DR,6011,8416,15108,0.132,551
2020-08-02T07:36:23,42.805,6.029,CST-1368DR,6011,8415,15106,0.133,551
2020-08-02T07:39:25,42.805,6.029,CST-1368DR,6010,8416,15110,0.132,551
2020-08-02T07:42:26,42.805,6.029,CST-1368DR,6011,8417,15109,0.132,551
2020-08-02T07:45:28,42.805,6.029,CST-1368DR,6011,8416,15108,0.132,551
2020-08-02T07:48:30,42.805,6.029,CST-1368DR,6011,8416,15107,0.133,551
2020-08-02T07:51:31,42.805,6.029,CST-1368DR,6010,8416,15110,0.132,551
2020-08-02T07:54:33,42.805,6.029,CST-1368DR,6010,8416,15110,0.132,551
2020-08-02T07:57:35,42.805,6.029,CST-1368DR,6010,8416,15110,0.132,551
2020-08-02T08:00:36,42.805,6.029,CST-1368DR,6010,8416,15110,0.132,551
2020-08-02T08:03:38,42.805,6.029,CST-1368DR,6010,8416,15110,0.132,551
2020-08-02T08:06:40,42.805,6.029,CST-1368DR,6010,8416,15110,0.132,551
2020-08-02T08:09:42,42.805,6.029,CST-1368DR,6010,8414,15106,0.133,551
2020-08-02T08:12:43,42.805,6.029,CST-1368DR,6010,8416,15110,0.132,551
2020-08-02T08:15:45,42.805,6.029,CST-1368DR,6010,8416,15109,0.132,551
2020-08-02T08:18:47,42.805,6.029,CST-1368DR,6010,8416,15109,0.132,551
2020-08-02T08:21:48,42.805,6.029,CST-1368DR,6010,8416,15109,0.132,551
2020-08-02T08:24:50,42.805,6.029,CST-1368DR,6010,8416,15110,0.132,551
2020-08-02T08:27:52,42.805,6.029,CST-1368DR,6010,8416,15110,0.132,551
2020-08-02T08:30:53,42.805,6.029,CST-1368DR,6010,8415,15108,0.132,551
2020-08-02T08:33:55,42.805,6.029,CST-1368DR,6010,8415,15109,0.132,551
2020-08-02T08:36:57,42.805,6.029,CST-1368DR,6010,8406,15092,0.137,551
2020-08-02T08:39:58,42.805,6.029,CST-1368DR,6010,8416,15110,0.132,551
2020-08-02T08:43:00,42.805,6.029,CST-1368DR,6010,8415,15108,0.132,551
2020-08-02T08:46:02,42.805,6.029,CST-1368DR,6010,8415,15109,0.132,551
2020-08-02T08:49:03,42.805,6.029,CST-1368DR,6010,8414,15106,0.133,551
2020-08-02T08:52:05,42.805,6.029,CST-1368DR,6010,8415,15107,0.133,550
2020-08-02T08:55:07,42.805,6.029,CST-1368DR,6010,8416,15110,0.132,551
2020-08-02T08:58:08,42.805,6.029,CST-1368DR,6010,8415,15108,0.132,551
2020-08-02T09:01:10,42.805,6.029,CST-1368DR,6010,8415,15108,0.132,551
2020-08-02T09:04:12,42.805,6.029,CST-1368DR,6010,8415,15108,0.132,551
2020-08-02T09:07:14,42.805,6.029,CST-1368DR,6010,8415,15109,0.132,551
2020-08-02T09:10:15,42.805,6.029,CST-1368DR,6010,8415,15108,0.132,551
2020-08-02T09:13:17,42.805,6.029,CST-1368DR,6010,8415,15108,0.132,551
2020-08-02T09:16:19,42.805,6.029,CST-1368DR,6010,8415,15107,0.133,551
2020-08-02T09:19:21,42.805,6.029,CST-1368DR,6010,8415,15108,0.132,551
2020-08-02T09:22:22,42.805,6.029,CST-1368DR,6010,8414,15106,0.133,551
2020-08-02T09:25:24,42.805,6.029,CST-1368DR,6010,8411,15101,0.134,551
2020-08-02T09:28:26,42.805,6.029,CST-1368DR,6010,8413,15104,0.133,551
2020-08-02T09:31:28,42.805,6.029,CST-1368DR,6010,8414,15107,0.133,551
2020-08-02T09:34:29,42.805,6.029,CST-1368DR,6010,8414,15106,0.133,551
2020-08-02T09:37:31,42.805,6.029,CST-1368DR,6010,8414,15106,0.133,551
2020-08-02T09:40:33,42.805,6.029,CST-1368DR,6010,8415,15108,0.132,551
2020-08-02T09:43:35,42.805,6.029,CST-1368DR,6010,8415,15108,0.132,551
2020-08-02T09:46:36,42.805,6.029,CST-1368DR,6010,8415,15108,0.132,551
2020-08-02T09:49:38,42.805,6.029,CST-1368DR,6010,8413,15105,0.133,551
2020-08-02T09:52:40,42.805,6.029,CST-1368DR,6010,8415,15108,0.132,551
2020-08-02T09:55:41,42.805,6.029,CST-1368DR,6010,8413,15105,0.133,551
2020-08-02T09:58:43,42.805,6.029,CST-1368DR,6010,8414,15107,0.133,551
2020-08-02T10:01:45,42.805,6.029,CST-1368DR,6010,8415,15108,0.132,551
2020-08-02T10:04:46,42.805,6.029,CST-1368DR,6010,8415,15108,0.132,551
2020-08-02T10:07:48,42.805,6.029,CST-1368DR,6010,8414,15106,0.133,551
2020-08-02T10:10:50,42.805,6.029,CST-1368DR,6010,8415,15108,0.132,550
2020-08-02T10:13:51,42.805,6.029,CST-1368DR,6010,8416,15109,0.132,551
2020-08-02T10:16:53,42.805,6.029,CST-1368DR,6010,8415,15107,0.133,551
2020-08-02T10:19:55,42.805,6.029,CST-1368DR,6010,8415,15108,0.132,551
2020-08-02T10:22:56,42.805,6.029,CST-1368DR,6010,8415,15108,0.132,551
2020-08-02T10:25:58,42.805,6.029,CST-1368DR,6010,8415,15109,0.132,551
2020-08-02T10:29:00,42.805,6.029,CST-1368DR,6010,8415,15108,0.132,551
2020-08-02T10:32:01,42.805,6.029,CST-1368DR,6010,8415,15108,0.132,551
2020-08-02T10:35:03,42.805,6.029,CST-1368DR,6010,8415,15108,0.132,551
2020-08-02T10:38:05,42.805,6.029,CST-1368DR,6010,8414,15106,0.133,551
2020-08-02T10:41:07,42.805,6.029,CST-1368DR,6010,8415,15107,0.133,551
2020-08-02T10:44:08,42.805,6.029,CST-1368DR,6010,8415,15108,0.132,551
2020-08-02T10:47:10,42.805,6.029,CST-1368DR,6010,8414,15107,0.133,551
2020-08-02T10:50:12,42.805,6.029,CST-1368DR,6010,8415,15109,0.132,551
2020-08-02T10:53:13,42.805,6.029,CST-1368DR,6010,8415,15108,0.132,551
2020-08-02T10:56:15,42.805,6.029,CST-1368DR,6010,8415,15109,0.132,551
2020-08-02T10:59:17,42.805,6.029,CST-1368DR,6010,8415,15108,0.132,551
2020-08-02T11:02:19,42.805,6.029,CST-1368DR,6010,8414,15107,0.133,551
2020-08-02T11:05:20,42.805,6.029,CST-1368DR,6010,8416,15109,0.132,551
2020-08-02T11:08:22,42.805,6.029,CST-1368DR,6010,8416,15110,0.132,551
2020-08-02T11:11:24,42.805,6.029,CST-1368DR,6010,8416,15110,0.132,551
2020-08-02T11:14:25,42.805,6.029,CST-1368DR,6010,8415,15108,0.132,551
2020-08-02T11:17:27,42.805,6.029,CST-1368DR,6010,8416,15109,0.132,551
2020-08-02T11:20:29,42.805,6.029,CST-1368DR,6010,8415,15108,0.132,551
2020-08-02T11:23:30,42.805,6.029,CST-1368DR,6010,8416,15109,0.132,551
2020-08-02T11:26:32,42.805,6.029,CST-1368DR,6010,8416,15110,0.132,551
2020-08-02T11:29:34,42.805,6.029,CST-1368DR,6010,8416,15109,0.132,551
2020-08-02T11:32:35,42.805,6.029,CST-1368DR,6010,8416,15110,0.132,551
2020-08-02T11:35:37,42.805,6.029,CST-1368DR,6010,8413,15104,0.133,551
2020-08-02T11:38:39,42.805,6.029,CST-1368DR,6010,8416,15110,0.132,551
2020-08-02T11:41:40,42.805,6.029,CST-1368DR,6010,8415,15108,0.132,551
2020-08-02T11:44:42,42.805,6.029,CST-1368DR,6010,8416,15109,0.132,551
2020-08-02T11:47:44,42.805,6.029,CST-1368DR,6010,8416,15109,0.132,551
2020-08-02T11:50:45,42.805,6.029,CST-1368DR,6010,8416,15110,0.132,551
2020-08-02T11:53:47,42.805,6.029,CST-1368DR,6010,8416,15109,0.132,551
2020-08-02T11:56:49,42.805,6.029,CST-1368DR,6010,8416,15109,0.132,551
2020-08-02T11:59:50,42.805,6.029,CST-1368DR,6010,8415,15108,0.132,551
2020-08-02T12:02:52,42.805,6.029,CST-1368DR,6010,8415,15109,0.132,551
2020-08-02T12:05:54,42.805,6.029,CST-1368DR,6010,8416,15110,0.132,551
2020-08-02T12:08:55,42.805,6.029,CST-1368DR,6010,8416,15109,0.132,551
2020-08-02T12:11:57,42.805,6.029,CST-1368DR,6010,8416,15110,0.132,551
2020-08-02T12:14:59,42.805,6.029,CST-1368DR,6010,8415,15107,0.133,551
2020-08-02T12:18:00,42.805,6.029,CST-1368DR,6010,8416,15109,0.132,551
2020-08-02T12:21:02,42.805,6.029,CST-1368DR,6010,8416,15110,0.132,551
2020-08-02T12:24:04,42.805,6.029,CST-1368DR,6010,8417,15111,0.131,551
2020-08-02T12:27:06,42.805,6.029,CST-1368DR,6010,8416,15110,0.132,551
2020-08-02T12:30:07,42.805,6.029,CST-1368DR,6010,8416,15109,0.132,551
2020-08-02T12:33:09,42.805,6.029,CST-1368DR,6010,8415,15108,0.132,551
2020-08-02T12:36:11,42.805,6.029,CST-1368DR,6010,8416,15109,0.132,551
2020-08-02T12:39:13,42.805,6.029,CST-1368DR,6010,8416,15110,0.132,551
2020-08-02T12:42:14,42.805,6.029,CST-1368DR,6010,8416,15110,0.132,551
2020-08-02T12:45:16,42.805,6.029,CST-1368DR,6010,8416,15110,0.132,551
2020-08-02T12:48:18,42.805,6.029,CST-1368DR,6010,8414,15107,0.133,551
2020-08-02T12:51:19,42.805,6.029,CST-1368DR,6010,8417,15111,0.131,551
2020-08-02T12:54:21,42.805,6.029,CST-1368DR,6010,8416,15110,0.132,551
2020-08-02T12:57:23,42.805,6.029,CST-1368DR,6010,8417,15111,0.131,551
2020-08-02T13:00:24,42.805,6.029,CST-1368DR,6010,8417,15111,0.131,551
2020-08-02T13:03:26,42.805,6.029,CST-1368DR,6010,8416,15110,0.132,551
2020-08-02T13:06:28,42.805,6.029,CST-1368DR,6010,8416,15110,0.132,551
2020-08-02T13:09:30,42.805,6.029,CST-1368DR,6010,8416,15110,0.132,551
2020-08-02T13:12:31,42.805,6.029,CST-1368DR,6010,8416,15109,0.132,551
2020-08-02T13:15:33,42.805,6.029,CST-1368DR,6010,8416,15110,0.132,551
2020-08-02T13:18:35,42.805,6.029,CST-1368DR,6010,8416,15109,0.132,551
2020-08-02T13:21:36,42.805,6.029,CST-1368DR,6010,8416,15110,0.132,551
2020-08-02T13:24:38,42.805,6.029,CST-1368DR,6010,8415,15109,0.132,551
2020-08-02T13:27:39,42.805,6.029,CST-1368DR,6010,8416,15109,0.132,551
2020-08-02T13:30:41,42.805,6.029,CST-1368DR,6009,8416,15112,0.131,551
2020-08-02T13:33:43,42.805,6.029,CST-1368DR,6010,8416,15110,0.132,551
2020-08-02T13:36:45,42.805,6.029,CST-1368DR,6010,8416,15110,0.132,551
2020-08-02T13:39:46,42.805,6.029,CST-1368DR,6010,8415,15108,0.132,551
2020-08-02T13:42:48,42.805,6.029,CST-1368DR,6010,8416,15110,0.132,551
2020-08-02T13:45:50,42.805,6.029,CST-1368DR,6010,8416,15110,0.132,551
2020-08-02T13:48:51,42.805,6.029,CST-1368DR,6010,8415,15109,0.132,551
2020-08-02T13:51:53,42.805,6.029,CST-1368DR,6010,8416,15109,0.132,551
2020-08-02T13:54:55,42.805,6.029,CST-1368DR,6010,8416,15110,0.132,551
2020-08-02T13:57:56,42.805,6.029,CST-1368DR,6010,8415,15107,0.133,551
2020-08-02T14:00:58,42.805,6.029,CST-1368DR,6009,8416,15111,0.131,551
2020-08-02T14:04:00,42.805,6.029,CST-1368DR,6010,8416,15109,0.132,551
2020-08-02T14:07:01,42.805,6.029,CST-1368DR,6010,8416,15110,0.132,551
2020-08-02T14:10:03,42.805,6.029,CST-1368DR,6010,8416,15110,0.132,551
2020-08-02T14:13:05,42.805,6.029,CST-1368DR,6009,8416,15112,0.131,550
2020-08-02T14:16:07,42.805,6.029,CST-1368DR,6009,8416,15111,0.131,551
2020-08-02T14:19:08,42.805,6.029,CST-1368DR,6010,8416,15110,0.132,551
2020-08-02T14:22:10,42.805,6.029,CST-1368DR,6009,8415,15111,0.131,551
2020-08-02T14:25:12,42.805,6.029,CST-1368DR,6009,8416,15111,0.131,551
2020-08-02T14:28:13,42.805,6.029,CST-1368DR,6009,8415,15111,0.131,551
2020-08-02T14:31:15,42.805,6.029,CST-1368DR,6009,8415,15111,0.131,551
2020-08-02T14:34:17,42.805,6.029,CST-1368DR,6009,8414,15109,0.132,551
2020-08-02T14:37:18,42.805,6.029,CST-1368DR,6010,8414,15107,0.133,551
2020-08-02T14:40:20,42.805,6.029,CST-1368DR,6009,8416,15112,0.131,551
2020-08-02T14:43:21,42.805,6.029,CST-1368DR,6009,8415,15111,0.131,551
2020-08-02T14:46:23,42.805,6.029,CST-1368DR,6009,8415,15110,0.132,551
2020-08-02T14:49:25,42.805,6.029,CST-1368DR,6009,8415,15111,0.131,551
2020-08-02T14:52:27,42.805,6.029,CST-1368DR,6009,8415,15111,0.131,551
2020-08-02T14:55:28,42.805,6.029,CST-1368DR,6009,8415,15111,0.131,551
2020-08-02T14:58:30,42.805,6.029,CST-1368DR,6009,8415,15110,0.132,551
2020-08-02T15:01:32,42.805,6.029,CST-1368DR,6009,8415,15111,0.131,551
2020-08-02T15:04:33,42.805,6.029,CST-1368DR,6009,8415,15111,0.131,551
2020-08-02T15:07:35,42.805,6.029,CST-1368DR,6009,8415,15111,0.131,551
2020-08-02T15:10:37,42.805,6.029,CST-1368DR,6009,8415,15110,0.132,551
2020-08-02T15:13:38,42.805,6.029,CST-1368DR,6009,8414,15108,0.132,551
2020-08-02T15:16:40,42.805,6.029,CST-1368DR,6009,8414,15109,0.132,551
2020-08-02T15:19:42,42.805,6.029,CST-1368DR,6009,8414,15109,0.132,551
2020-08-02T15:22:43,42.805,6.029,CST-1368DR,6009,8415,15110,0.132,551
2020-08-02T15:25:45,42.805,6.029,CST-1368DR,6009,8415,15110,0.132,551
2020-08-02T15:28:47,42.805,6.029,CST-1368DR,6009,8415,15110,0.132,551
2020-08-02T15:31:49,42.805,6.029,CST-1368DR,6009,8414,15109,0.132,551
2020-08-02T15:34:50,42.805,6.029,CST-1368DR,6009,8415,15110,0.132,551
2020-08-02T15:37:52,42.805,6.029,CST-1368DR,6009,8415,15110,0.132,551
2020-08-02T15:40:54,42.805,6.029,CST-1368DR,6009,8414,15109,0.132,550
2020-08-02T15:43:56,42.805,6.029,CST-1368DR,6009,8414,15109,0.132,551
2020-08-02T15:46:57,42.805,6.029,CST-1368DR,6009,8415,15110,0.132,551
2020-08-02T15:49:59,42.805,6.029,CST-1368DR,6009,8414,15108,0.132,551
2020-08-02T15:53:01,42.805,6.029,CST-1368DR,6009,8414,15108,0.132,551
2020-08-02T15:56:02,42.805,6.029,CST-1368DR,6009,8414,15109,0.132,551
2020-08-02T15:59:04,42.805,6.029,CST-1368DR,6009,8414,15108,0.132,551
2020-08-02T16:02:06,42.805,6.029,CST-1368DR,6009,8414,15108,0.132,551
2020-08-02T16:05:07,42.805,6.029,CST-1368DR,6009,8413,15106,0.133,551
2020-08-02T16:08:09,42.805,6.029,CST-1368DR,6009,8414,15108,0.132,551
2020-08-02T16:11:11,42.805,6.029,CST-1368DR,6009,8414,15109,0.132,551
2020-08-02T16:14:13,42.805,6.029,CST-1368DR,6009,8414,15108,0.132,551
2020-08-02T16:17:14,42.805,6.029,CST-1368DR,6009,8414,15109,0.132,551
2020-08-02T16:20:16,42.805,6.029,CST-1368DR,6009,8414,15108,0.132,551
2020-08-02T16:23:18,42.805,6.029,CST-1368DR,6009,8414,15108,0.132,551
2020-08-02T16:26:20,42.805,6.029,CST-1368DR,6009,8414,15109,0.132,551
2020-08-02T16:29:21,42.805,6.029,CST-1368DR,6009,8414,15108,0.132,551
2020-08-02T16:32:23,42.805,6.029,CST-1368DR,6009,8414,15108,0.132,551
2020-08-02T16:35:25,42.805,6.029,CST-1368DR,6009,8413,15107,0.133,551
2020-08-02T16:38:27,42.805,6.029,CST-1368DR,6009,8413,15106,0.133,551
2020-08-02T16:41:28,42.805,6.029,CST-1368DR,6009,8413,15107,0.133,551
2020-08-02T16:44:30,42.805,6.029,CST-1368DR,6009,8414,15108,0.132,551
2020-08-02T16:47:32,42.805,6.029,CST-1368DR,6009,8414,15108,0.132,551
2020-08-02T16:50:33,42.805,6.029,CST-1368DR,6009,8414,15108,0.132,551
2020-08-02T16:53:35,42.805,6.029,CST-1368DR,6009,8412,15106,0.133,551